KD8AZC-13 Weather Reports


time (UTC)temp
F
wind
direction
speed
knots
gust
knots
rain 1hr
in
rain 24hr
in
rain mn
in
humidity
%
barometer
mb
20260508001522 58 293 0.0 7.0 0.00 0.00 0.00 40 1009.8
20260508000021 59 310 4.3 11.3 0.00 0.00 0.00 40 1009.5
20260507234519 60 306 7.0 14.8 0.00 0.00 0.00 39 1009.2
20260507233031 60 248 5.2 10.4 0.00 0.00 0.00 39 1009.0
20260507231518 61 301 8.7 13.9 0.00 0.00 0.00 39 1009.0
20260507230017 61 272 5.2 13.9 0.00 0.00 0.00 38 1008.8
20260507224517 61 262 11.3 17.4 0.00 0.00 0.00 39 1008.5
20260507223016 61 290 7.8 13.9 0.00 0.00 0.00 38 1008.4
20260507221520 63 318 6.1 16.5 0.00 0.00 0.00 39 1008.2
20260507220015 65 319 4.3 12.2 0.00 0.00 0.00 35 1007.9
20260507214516 66 339 7.0 13.0 0.00 0.00 0.00 33 1007.9
20260507213019 66 326 5.2 13.0 0.00 0.00 0.00 37 1007.6
20260507211513 66 320 10.4 14.8 0.00 0.00 0.00 32 1007.7
20260507210012 67 342 5.2 12.2 0.00 0.00 0.00 34 1007.4
20260507204518 67 292 4.3 14.8 0.00 0.00 0.00 38 1007.6
20260507203011 67 323 10.4 17.4 0.00 0.00 0.00 34 1007.6
20260507201515 68 349 4.3 10.4 0.00 0.00 0.00 35 1007.7
20260507200012 67 266 5.2 15.6 0.00 0.00 0.00 35 1007.7
20260507194510 69 303 3.5 13.9 0.00 0.00 0.00 34 1007.8
20260507193013 69 251 7.0 13.0 0.00 0.00 0.00 34 1007.9
20260507191512 69 289 8.7 12.2 0.00 0.00 0.00 33 1007.7
20260507190006 69 305 6.1 12.2 0.00 0.00 0.00 34 1007.9
20260507184505 69 283 7.8 13.9 0.00 0.00 0.00 34 1007.9
20260507183003 68 283 7.8 15.6 0.00 0.00 0.00 36 1008.0
20260507181616 67 279 10.4 15.6 0.00 0.00 0.00 36 1008.0
20260507180100 67 219 4.3 16.5 0.00 0.00 0.00 36 1008.2
20260507174602 67 102 6.1 12.2 0.00 0.00 0.00 38 1008.3
20260507173129 67 354 5.2 11.3 0.00 0.00 0.00 43 1008.6
20260507171604 67 304 5.2 13.0 0.00 0.00 0.00 40 1008.9
20260507170107 66 242 6.1 15.6 0.00 0.00 0.00 43 1009.1
20260507164554 65 285 7.0 13.9 0.00 0.00 0.00 45 1009.4
20260507163047 66 327 8.7 13.9 0.00 0.00 0.00 44 1009.7
20260507161557 65 326 3.5 12.2 0.00 0.00 0.00 43 1009.9
20260507160002 63 276 7.8 13.9 0.00 0.00 0.00 47 1010.0
20260507154559 63 26 3.5 12.2 0.00 0.00 0.00 49 1010.3
20260507153059 62 284 2.6 7.8 0.00 0.00 0.00 48 1010.5
20260507151555 60 278 2.6 7.8 0.00 0.00 0.00 53 1010.7
20260507150058 60 313 6.1 13.0 0.00 0.00 0.00 51 1011.0
20260507144551 58 319 4.3 8.7 0.00 0.00 0.00 55 1011.4
20260507143047 57 343 2.6 7.0 0.00 0.00 0.00 54 1011.7
20260507141551 56 285 3.5 7.8 0.00 0.00 0.00 59 1011.8
20260507140038 53 104 0.0 2.6 0.00 0.00 0.00 61 1012.1
20260507134535 53 4 0.0 3.5 0.00 0.00 0.00 61 1012.4
20260507133035 52 26 0.9 4.3 0.00 0.00 0.00 62 1012.5
20260507131537 52 33 1.7 5.2 0.00 0.00 0.00 65 1012.5
20260507130031 51 27 3.5 6.1 0.00 0.00 0.00 70 1012.6
20260507124530 51 11 2.6 3.5 0.00 0.03 0.00 71 1012.7
20260507123037 51 4 0.9 1.7 0.00 0.03 0.00 75 1012.7
20260507121527 51 338 1.7 3.5 0.00 0.03 0.00 73 1012.7
20260507120127 51 35 1.7 7.0 0.00 0.03 0.00 74 1012.4
20260507114523 50 10 2.6 7.0 0.00 0.04 0.00 73 1012.3
20260507113036 50 25 2.6 5.2 0.00 0.04 0.00 74 1012.2
20260507111519 50 4 1.7 4.3 0.00 0.04 0.00 74 1012.1
20260507110017 50 318 1.7 3.5 0.00 0.04 0.00 78 1011.9
20260507104516 50 15 0.0 2.6 0.00 0.05 0.00 78 1011.8
20260507103013 50 344 1.7 4.3 0.00 0.05 0.00 81 1011.5
20260507101512 50 276 1.7 3.5 0.00 0.05 0.00 81 1011.3
20260507100015 50 17 1.7 2.6 0.00 0.05 0.00 81 1010.9
20260507094510 51 331 0.0 3.5 0.00 0.05 0.00 82 1010.9
20260507093010 50 350 1.7 5.2 0.00 0.05 0.00 83 1011.0
20260507091508 50 348 1.7 2.6 0.00 0.05 0.00 86 1011.1
20260507090008 50 359 1.7 3.5 0.00 0.05 0.00 87 1010.7
20260507084510 50 304 0.9 2.6 0.00 0.05 0.00 86 1010.9
20260507083007 50 272 0.9 2.6 0.00 0.05 0.00 85 1011.1
20260507081506 50 281 0.9 1.7 0.00 0.05 0.00 84 1010.9
20260507080004 51 281 0.9 1.7 0.00 0.05 0.00 83 1010.9
20260507074502 51 272 0.9 2.6 0.00 0.05 0.00 83 1010.7
20260507073136 51 301 0.0 1.7 0.00 0.05 0.00 82 1010.5
20260507071559 51 347 0.9 1.7 0.00 0.05 0.00 81 1010.6
20260507070058 52 295 0.0 2.6 0.00 0.05 0.00 81 1010.8
20260507064610 52 4 0.9 1.7 0.00 0.05 0.00 80 1010.4
20260507063103 52 21 0.9 3.5 0.00 0.05 0.00 79 1010.7
20260507061554 52 16 0.9 3.5 0.00 0.05 0.00 80 1011.1
20260507060053 52 56 0.9 3.5 0.00 0.05 0.00 78 1011.2
20260507054553 53 312 0.9 4.3 0.00 0.05 0.00 77 1011.2
20260507053052 53 4 1.7 7.8 0.00 0.05 0.00 77 1011.2
20260507051550 53 25 1.7 7.8 0.00 0.05 0.00 78 1011.2
20260507050053 53 8 4.3 9.6 0.00 0.05 0.00 79 1011.0
20260507044548 53 31 5.2 10.4 0.00 0.05 0.00 80 1010.8
20260507043048 53 47 5.2 11.3 0.00 0.05 0.00 81 1010.5
20260507041545 53 39 5.2 9.6 0.00 0.05 0.00 81 1010.5
20260507040037 54 41 2.6 9.6 0.00 0.05 0.00 82 1010.6
20260507034543 54 48 1.7 4.3 0.00 0.05 0.05 83 1010.0
20260507033044 54 35 3.5 15.6 0.00 0.05 0.05 82 1010.9
20260507031531 55 45 8.7 13.0 0.00 0.05 0.05 82 1010.1
20260507030027 56 26 3.5 7.8 0.00 0.05 0.05 82 1010.6
20260507024530 56 31 1.7 8.7 0.00 0.05 0.05 81 1010.6
20260507023023 56 31 3.5 5.2 0.00 0.05 0.05 81 1010.1
20260507021520 57 324 0.9 2.6 0.00 0.05 0.05 81 1010.0
20260507020019 57 21 4.3 7.0 0.00 0.05 0.05 80 1009.7
20260507014521 57 341 1.7 8.7 0.00 0.05 0.05 80 1009.4
20260507013015 58 25 1.7 8.7 0.00 0.05 0.05 80 1009.2
20260507011514 58 52 3.5 7.8 0.00 0.05 0.05 80 1009.1
20260507010027 58 21 6.1 8.7 0.00 0.05 0.05 80 1009.2
20260507004513 59 29 4.3 8.7 0.00 0.05 0.05 79 1008.7
20260507003011 59 53 3.5 11.3 0.00 0.05 0.05 79 1008.8